Time,TemperatureF,DewpointF,PressureIn,WindDirection,WindDirectionDegrees,WindSpeedMPH,WindSpeedGustMPH,Humidity,HourlyPrecipIn,Conditions,Clouds,dailyrainin,SolarRadiationWatts/m^2,SoftwareType,DateUTC
2013-02-10 00:01:00,29.0,24.0,-100.00,NNW,341,0.0,0.0,82,0.00,,,0.00,0.000000,,2013-02-10 08:01:00,
2013-02-10 00:32:00,29.0,25.0,-100.00,North,1,0.0,0.0,85,0.00,,,-99.99,0.000000,,2013-02-10 08:32:00,
2013-02-10 00:43:00,29.0,25.0,-100.00,North,1,0.0,0.0,85,0.00,,,-99.99,0.000000,,2013-02-10 08:43:00,
2013-02-10 00:52:00,29.0,25.0,-100.00,North,1,0.0,0.0,85,0.00,,,-99.99,0.000000,,2013-02-10 08:52:00,
2013-02-10 01:01:00,29.0,25.0,-100.00,North,1,0.0,0.0,85,0.00,,,-99.99,0.000000,,2013-02-10 09:01:00,
2013-02-10 01:32:00,28.0,24.0,-100.00,NNW,343,0.0,0.0,86,0.00,,,0.00,0.000000,,2013-02-10 09:32:00,
2013-02-10 01:42:00,28.0,24.0,-100.00,NNW,343,0.0,0.0,86,0.00,,,0.00,0.000000,,2013-02-10 09:42:00,
2013-02-10 01:52:00,28.0,24.0,-100.00,NNW,343,0.0,0.0,86,0.00,,,0.00,0.000000,,2013-02-10 09:52:00,
2013-02-10 02:01:00,28.0,24.0,-100.00,NNW,343,0.0,0.0,86,0.00,,,0.00,0.000000,,2013-02-10 10:01:00,
2013-02-10 02:32:00,27.0,24.0,-100.00,NE,34,0.0,0.0,88,0.00,,,0.00,0.000000,,2013-02-10 10:32:00,
2013-02-10 02:42:00,27.0,24.0,-100.00,NE,34,0.0,0.0,88,0.00,,,0.00,0.000000,,2013-02-10 10:42:00,
2013-02-10 02:52:00,27.0,24.0,-100.00,NE,34,0.0,0.0,88,0.00,,,0.00,0.000000,,2013-02-10 10:52:00,
2013-02-10 03:01:00,27.0,24.0,-100.00,NE,34,0.0,0.0,88,0.00,,,0.00,0.000000,,2013-02-10 11:01:00,
2013-02-10 03:32:00,27.0,24.0,-100.00,NNW,338,0.0,0.0,88,0.00,,,0.00,0.000000,,2013-02-10 11:32:00,
2013-02-10 03:42:00,27.0,24.0,-100.00,NNW,338,0.0,0.0,88,0.00,,,0.00,0.000000,,2013-02-10 11:42:00,
2013-02-10 03:52:00,27.0,24.0,-100.00,NNW,338,0.0,0.0,88,0.00,,,0.00,0.000000,,2013-02-10 11:52:00,
2013-02-10 04:01:00,27.0,24.0,-100.00,NNW,338,0.0,0.0,88,0.00,,,0.00,0.000000,,2013-02-10 12:01:00,
2013-02-10 07:32:00,29.0,25.0,-100.00,North,354,0.0,0.0,84,-99.99,,,0.00,0.000000,,2013-02-10 15:32:00,
2013-02-10 07:42:00,29.0,25.0,-100.00,North,354,0.0,0.0,84,-99.99,,,0.00,0.000000,,2013-02-10 15:42:00,
2013-02-10 07:52:00,29.0,25.0,-100.00,North,354,0.0,0.0,84,-99.99,,,0.00,0.000000,,2013-02-10 15:52:00,
2013-02-10 08:01:00,29.0,25.0,-100.00,North,354,0.0,0.0,84,-99.99,,,0.00,0.000000,,2013-02-10 16:01:00,
2013-02-10 08:32:00,30.0,23.0,-100.00,WNW,291,0.0,2.0,75,0.00,,,-99.99,19.000000,,2013-02-10 16:32:00,
2013-02-10 08:42:00,30.0,23.0,-100.00,WNW,291,0.0,2.0,75,0.00,,,-99.99,19.000000,,2013-02-10 16:42:00,
2013-02-10 08:52:00,30.0,23.0,-100.00,WNW,291,0.0,2.0,75,0.00,,,-99.99,19.000000,,2013-02-10 16:52:00,
2013-02-10 09:01:00,30.0,23.0,-100.00,WNW,291,0.0,2.0,75,0.00,,,-99.99,19.000000,,2013-02-10 17:01:00,
2013-02-10 09:32:00,37.0,25.0,-100.00,SE,144,0.0,0.0,62,0.00,,,0.00,61.000000,,2013-02-10 17:32:00,
2013-02-10 09:42:00,37.0,25.0,-100.00,SE,144,0.0,0.0,62,0.00,,,0.00,61.000000,,2013-02-10 17:42:00,
2013-02-10 09:52:00,37.0,25.0,-100.00,SE,144,0.0,0.0,62,0.00,,,0.00,61.000000,,2013-02-10 17:52:00,
2013-02-10 10:01:00,37.0,25.0,-100.00,SE,144,0.0,0.0,62,0.00,,,0.00,61.000000,,2013-02-10 18:01:00,
2013-02-10 10:32:00,39.0,25.0,-100.00,SSE,150,0.0,3.0,56,0.00,,,0.00,109.000000,,2013-02-10 18:32:00,
2013-02-10 10:42:00,39.0,25.0,-100.00,SSE,150,0.0,3.0,56,0.00,,,0.00,109.000000,,2013-02-10 18:42:00,
2013-02-10 10:52:00,39.0,25.0,-100.00,SSE,150,0.0,3.0,56,0.00,,,0.00,109.000000,,2013-02-10 18:52:00,
2013-02-10 11:01:00,39.0,25.0,-100.00,SSE,150,0.0,3.0,56,0.00,,,0.00,109.000000,,2013-02-10 19:01:00,
2013-02-10 11:32:00,44.0,25.0,-100.00,South,180,2.0,4.0,46,0.00,,,0.00,488.000000,,2013-02-10 19:32:00,
2013-02-10 11:43:00,44.0,25.0,-100.00,South,180,2.0,4.0,46,0.00,,,0.00,488.000000,,2013-02-10 19:43:00,
2013-02-10 11:52:00,44.0,25.0,-100.00,South,180,2.0,4.0,46,0.00,,,0.00,488.000000,,2013-02-10 19:52:00,
2013-02-10 12:01:00,44.0,25.0,-100.00,South,180,2.0,4.0,46,0.00,,,0.00,488.000000,,2013-02-10 20:01:00,
2013-02-10 12:32:00,44.0,26.0,-100.00,SSW,200,4.0,8.0,49,0.00,,,0.00,572.000000,,2013-02-10 20:32:00,
2013-02-10 12:42:00,44.0,26.0,-100.00,SSW,200,4.0,8.0,49,0.00,,,0.00,572.000000,,2013-02-10 20:42:00,
2013-02-10 12:52:00,44.0,26.0,-100.00,SSW,200,4.0,8.0,49,0.00,,,0.00,572.000000,,2013-02-10 20:52:00,
2013-02-10 13:02:00,44.0,26.0,-100.00,SSW,200,4.0,8.0,49,0.00,,,0.00,572.000000,,2013-02-10 21:02:00,
2013-02-10 13:32:00,44.0,27.0,-100.00,SSW,206,5.0,9.0,50,0.00,,,0.00,574.000000,,2013-02-10 21:32:00,
2013-02-10 13:42:00,44.0,27.0,-100.00,SSW,206,5.0,9.0,50,0.00,,,0.00,574.000000,,2013-02-10 21:42:00,
2013-02-10 13:52:00,44.0,27.0,-100.00,SSW,206,5.0,9.0,50,0.00,,,0.00,574.000000,,2013-02-10 21:52:00,
2013-02-10 14:01:00,44.0,27.0,-100.00,SSW,206,5.0,9.0,50,0.00,,,0.00,574.000000,,2013-02-10 22:01:00,
2013-02-10 14:32:00,44.0,25.0,-100.00,SSW,208,5.0,12.0,46,0.00,,,0.00,524.000000,,2013-02-10 22:32:00,
2013-02-10 14:42:00,44.0,25.0,-100.00,SSW,208,5.0,12.0,46,0.00,,,0.00,524.000000,,2013-02-10 22:42:00,
2013-02-10 14:52:00,44.0,25.0,-100.00,SSW,208,5.0,12.0,46,0.00,,,0.00,524.000000,,2013-02-10 22:52:00,
2013-02-10 15:01:00,44.0,25.0,-100.00,SSW,208,5.0,12.0,46,0.00,,,0.00,524.000000,,2013-02-10 23:01:00,
2013-02-10 15:32:00,42.0,24.0,-100.00,SSW,199,4.0,9.0,49,0.00,,,0.00,421.000000,,2013-02-10 23:32:00,
2013-02-10 15:42:00,42.0,24.0,-100.00,SSW,199,4.0,9.0,49,0.00,,,0.00,421.000000,,2013-02-10 23:42:00,
2013-02-10 15:52:00,42.0,24.0,-100.00,SSW,199,4.0,9.0,49,0.00,,,0.00,421.000000,,2013-02-10 23:52:00,
2013-02-10 16:01:00,42.0,24.0,-100.00,SSW,199,4.0,9.0,49,0.00,,,0.00,421.000000,,2013-02-11 00:01:00,
2013-02-10 16:32:00,42.0,25.0,-100.00,SSW,201,3.0,8.0,50,0.00,,,0.00,265.000000,,2013-02-11 00:32:00,
2013-02-10 16:42:00,42.0,25.0,-100.00,SSW,201,3.0,8.0,50,0.00,,,0.00,265.000000,,2013-02-11 00:42:00,
2013-02-10 16:52:00,42.0,25.0,-100.00,SSW,201,3.0,8.0,50,0.00,,,0.00,265.000000,,2013-02-11 00:52:00,
2013-02-10 17:01:00,42.0,25.0,-100.00,SSW,201,3.0,8.0,50,0.00,,,0.00,265.000000,,2013-02-11 01:01:00,
2013-02-10 18:32:00,35.0,28.0,-100.00,SSW,212,0.0,6.0,74,-99.99,,,0.00,1.000000,,2013-02-11 02:32:00,
2013-02-10 18:42:00,35.0,28.0,-100.00,SSW,212,0.0,6.0,74,-99.99,,,0.00,1.000000,,2013-02-11 02:42:00,
2013-02-10 18:52:00,35.0,28.0,-100.00,SSW,212,0.0,6.0,74,-99.99,,,0.00,1.000000,,2013-02-11 02:52:00,
2013-02-10 19:01:00,35.0,28.0,-100.00,SSW,212,0.0,6.0,74,-99.99,,,0.00,1.000000,,2013-02-11 03:01:00,
2013-02-10 19:32:00,33.0,28.0,-100.00,NW,314,0.0,4.0,80,0.00,,,0.00,0.000000,,2013-02-11 03:32:00,
2013-02-10 19:42:00,33.0,28.0,-100.00,NW,314,0.0,4.0,80,0.00,,,0.00,0.000000,,2013-02-11 03:42:00,
2013-02-10 19:52:00,33.0,28.0,-100.00,NW,314,0.0,4.0,80,0.00,,,0.00,0.000000,,2013-02-11 03:52:00,
2013-02-10 20:01:00,33.0,28.0,-100.00,NW,314,0.0,4.0,80,0.00,,,0.00,0.000000,,2013-02-11 04:01:00,
2013-02-10 20:32:00,32.0,27.0,-100.00,North,353,0.0,3.0,83,0.00,,,0.00,0.000000,,2013-02-11 04:32:00,
2013-02-10 20:42:00,32.0,27.0,-100.00,North,353,0.0,3.0,83,0.00,,,0.00,0.000000,,2013-02-11 04:42:00,
2013-02-10 20:52:00,32.0,27.0,-100.00,North,353,0.0,3.0,83,0.00,,,0.00,0.000000,,2013-02-11 04:52:00,
2013-02-10 21:01:00,32.0,27.0,-100.00,North,353,0.0,3.0,83,0.00,,,0.00,0.000000,,2013-02-11 05:01:00,
2013-02-10 21:32:00,31.0,27.0,-100.00,WSW,257,0.0,0.0,85,0.00,,,0.00,0.000000,,2013-02-11 05:32:00,
2013-02-10 21:42:00,31.0,27.0,-100.00,WSW,257,0.0,0.0,85,0.00,,,0.00,0.000000,,2013-02-11 05:42:00,
2013-02-10 21:52:00,31.0,27.0,-100.00,WSW,257,0.0,0.0,85,0.00,,,0.00,0.000000,,2013-02-11 05:52:00,
2013-02-10 22:01:00,31.0,27.0,-100.00,WSW,257,0.0,0.0,85,0.00,,,0.00,0.000000,,2013-02-11 06:01:00,
2013-02-10 22:32:00,29.0,26.0,-100.00,SW,236,0.0,2.0,87,0.00,,,0.00,0.000000,,2013-02-11 06:32:00,
2013-02-10 22:42:00,29.0,26.0,-100.00,SW,236,0.0,2.0,87,0.00,,,0.00,0.000000,,2013-02-11 06:42:00,
2013-02-10 22:52:00,29.0,26.0,-100.00,SW,236,0.0,2.0,87,0.00,,,0.00,0.000000,,2013-02-11 06:52:00,
2013-02-10 23:01:00,29.0,26.0,-100.00,SW,236,0.0,2.0,87,0.00,,,0.00,0.000000,,2013-02-11 07:01:00,
2013-02-10 23:32:00,29.0,26.0,-100.00,NNW,342,0.0,2.0,88,0.00,,,0.00,0.000000,,2013-02-11 07:32:00,
2013-02-10 23:42:00,29.0,26.0,-100.00,NNW,342,0.0,2.0,88,0.00,,,0.00,0.000000,,2013-02-11 07:42:00,
2013-02-10 23:52:00,29.0,26.0,-100.00,NNW,342,0.0,2.0,88,0.00,,,0.00,0.000000,,2013-02-11 07:52:00,